H1 CPF 2 NER 2023 8 30 9 242 01 glonass143 H2 2007501 9143 46805 2023 8 30 0 0 0 2023 9 2 23 45 0 900 1 1 0 0 0 1 H9 10 0 60186 0.00000 0 8400122.427 -8133169.734 22686361.765 10 0 60186 900.00000 0 9491422.000 -5535687.802 23034563.920 10 0 60186 1800.00000 0 10775942.685 -3010692.177 22936119.026 10 0 60186 2700.00000 0 12220673.853 -619563.344 22392861.733 10 0 60186 3600.00000 0 13782557.095 1583325.884 21415238.175 10 0 60186 4500.00000 0 15410187.947 3552637.952 20022111.892 10 0 60186 5400.00000 0 17045886.523 5253716.166 18240408.169 10 0 60186 6300.00000 0 18628051.825 6663780.579 16104602.699 10 0 60186 7200.00000 0 20093702.228 7772624.860 13656063.357 10 0 60186 8100.00000 0 21381096.467 8582785.486 10942256.759 10 0 60186 9000.00000 0 22432325.536 9109176.459 8015834.020 10 0 60186 9900.00000 0 23195766.526 9378205.158 4933612.751 10 0 60186 10800.00000 0 23628294.738 9426406.796 1755474.692 10 0 60186 11700.00000 0 23697160.121 9298655.431 -1456799.670 10 0 60186 12600.00000 0 23381447.905 9046027.578 -4640736.483 10 0 60186 13500.00000 0 22673060.632 8723409.432 -7734389.870 10 0 60186 14400.00000 0 21577178.975 8386949.836 -10677554.654 10 0 60186 15300.00000 0 20112180.782 8091467.820 -13412945.919 10 0 60186 16200.00000 0 18309020.768 7887925.600 -15887321.526 10 0 60186 17100.00000 0 16210096.219 7821075.126 -18052524.960 10 0 60186 18000.00000 0 13867645.820 7927378.855 -19866427.566 10 0 60186 18900.00000 0 11341748.520 8233293.603 -21293751.457 10 0 60186 19800.00000 0 8698006.032 8753990.839 -22306756.971 10 0 60186 20700.00000 0 6005005.876 9492568.057 -22885781.375 10 0 60186 21600.00000 0 3331670.811 10439784.982 -23019618.621 10 0 60186 22500.00000 0 744605.027 11574336.066 -22705733.132 10 0 60186 23400.00000 0 -1694452.613 12863648.022 -21950303.920 10 0 60186 24300.00000 0 -3930962.781 14265168.981 -20768098.603 10 0 60186 25200.00000 0 -5919610.962 15728095.128 -19182180.135 10 0 60186 26100.00000 0 -7625940.527 17195462.286 -17223452.312 10 0 60186 27000.00000 0 -9027526.886 18606514.502 -14930053.138 10 0 60186 27900.00000 0 -10114645.352 19899250.134 -12346608.073 10 0 60186 28800.00000 0 -10890406.570 21013038.355 -9523357.910 10 0 60186 29700.00000 0 -11370355.751 21891196.124 -6515178.478 10 0 60186 30600.00000 0 -11581554.407 22483417.270 -3380511.426 10 0 60186 31500.00000 0 -11561184.973 22747951.651 -180227.211 10 0 60186 32400.00000 0 -11354738.639 22653442.840 3023557.399 10 0 60186 33300.00000 0 -11013864.074 22180347.242 6168684.125 10 0 60186 34200.00000 0 -10593968.782 21321875.161 9194156.719 10 0 60186 35100.00000 0 -10151674.951 20084414.398 12041319.953 10 0 60186 36000.00000 0 -9742237.483 18487418.657 14654991.389 10 0 60186 36900.00000 0 -9417033.165 16562765.285 16984524.384 10 0 60186 37800.00000 0 -9221226.686 14353608.927 18984782.329 10 0 60186 38700.00000 0 -9191711.533 11912778.393 20617006.044 10 0 60186 39600.00000 0 -9355412.175 9300782.830 21849558.292 10 0 60186 40500.00000 0 -9728018.750 6583509.168 22658531.869 10 0 60186 41400.00000 0 -10313207.481 3829705.383 23028210.163 10 0 60186 42300.00000 0 -11102379.861 1108352.770 22951371.766 10 0 60186 43200.00000 0 -12074932.221 -1513965.076 22429433.426 10 0 60186 44100.00000 0 -13199045.314 -3975588.778 21472428.468 10 0 60186 45000.00000 0 -14432962.005 -6222101.534 20098820.589 10 0 60186 45900.00000 0 -15726700.808 -8208344.105 18335155.912 10 0 60186 46800.00000 0 -17024134.728 -9900043.525 16215558.991 10 0 60186 47700.00000 0 -18265349.326 -11274988.307 13781081.473 10 0 60186 48600.00000 0 -19389181.881 -12323701.595 11078914.918 10 0 60186 49500.00000 0 -20335835.455 -13049584.387 8161482.048 10 0 60186 50400.00000 0 -21049457.939 -13468523.084 5085423.395 10 0 60186 51300.00000 0 -21480577.135 -13607978.035 1910498.552 10 0 60186 52200.00000 0 -21588288.493 -13505591.750 -1301576.648 10 0 60186 53100.00000 0 -21342102.141 -13207375.866 -4488334.103 10 0 60186 54000.00000 0 -20723369.995 -12765553.999 -7587774.564 10 0 60186 54900.00000 0 -19726231.364 -12236152.401 -10539581.334 10 0 60186 55800.00000 0 -18358035.765 -11676441.222 -13286301.973 10 0 60186 56700.00000 0 -16639223.908 -11142335.631 -15774474.093 10 0 60186 57600.00000 0 -14602670.748 -10685867.723 -17955672.534 10 0 60186 58500.00000 0 -12292517.373 -10352837.138 -19787456.893 10 0 60186 59400.00000 0 -9762540.153 -10180740.492 -21234200.580 10 0 60186 60300.00000 0 -7074124.983 -10197067.782 -22267785.157 10 0 60186 61200.00000 0 -4293931.104 -10418038.145 -22868146.511 10 0 60186 62100.00000 0 -1491341.826 -10847828.540 -23023662.518 10 0 60186 63000.00000 0 1264191.799 -11478327.999 -22731375.037 10 0 60186 63900.00000 0 3905803.951 -12289427.734 -21997042.340 10 0 60186 64800.00000 0 6371753.690 -13249834.732 -20835021.384 10 0 60186 65700.00000 0 8607746.245 -14318374.394 -19267982.582 10 0 60186 66600.00000 0 10568940.166 -15445727.137 -17326462.964 10 0 60186 67500.00000 0 12221557.864 -16576525.630 -15048266.656 10 0 60186 68400.00000 0 13544033.810 -17651724.138 -12477724.580 10 0 60186 69300.00000 0 14527653.975 -18611140.023 -9664827.999 10 0 60186 70200.00000 0 15176661.566 -19396060.192 -6664252.969 10 0 60186 71100.00000 0 15507826.434 -19951802.609 -3534294.920 10 0 60186 72000.00000 0 15549497.996 -20230124.872 -335734.370 10 0 60186 72900.00000 0 15340183.194 -20191378.402 2869343.943 10 0 60186 73800.00000 0 14926710.730 -19806317.540 6018755.348 10 0 60186 74700.00000 0 14362060.130 -19057487.426 9051419.404 10 0 60186 75600.00000 0 13702947.917 -17940132.294 11908540.625 10 0 60186 76500.00000 0 13007273.137 -16462585.913 14534743.039 10 0 60186 77400.00000 0 12331530.015 -14646127.581 16879136.987 10 0 60186 78300.00000 0 11728296.604 -12524309.265 18896298.087 10 0 60186 79200.00000 0 11243904.758 -10141781.351 20547140.153 10 0 60186 80100.00000 0 10916388.998 -7552665.130 21799665.979 10 0 60186 81000.00000 0 10773800.010 -4818538.706 22629582.275 10 0 60186 81900.00000 0 10832953.252 -2006118.754 23020767.575 10 0 60186 82800.00000 0 11098665.093 815266.990 22965584.539 10 0 60186 83700.00000 0 11563508.661 3576313.091 22465030.822 10 0 60186 84600.00000 0 12208100.106 6210367.885 21528725.499 10 0 60186 85500.00000 0 13001904.028 8655955.181 20174730.810 10 0 60187 0.00000 0 13904525.095 10859082.510 18429212.121 10 0 60187 900.00000 0 14867433.253 12775242.076 16325940.684 10 0 60187 1800.00000 0 15836049.772 14371018.909 13905650.133 10 0 60187 2700.00000 0 16752108.946 15625243.555 11215254.991 10 0 60187 3600.00000 0 17556195.420 16529638.418 8306947.578 10 0 60187 4500.00000 0 18190350.921 17088932.025 5237189.279 10 0 60187 5400.00000 0 18600640.183 17320436.339 2065615.458 10 0 60187 6300.00000 0 18739567.179 17253105.001 -1146124.795 10 0 60187 7200.00000 0 18568238.606 16926112.416 -4335571.180 10 0 60187 8100.00000 0 18058182.021 16387014.006 -7440673.055 10 0 60187 9000.00000 0 17192740.350 15689565.880 -10401004.047 10 0 60187 9900.00000 0 15967982.405 14891296.780 -13158945.879 10 0 60187 10800.00000 0 14393089.543 14050935.761 -15660817.418 10 0 60187 11700.00000 0 12490200.798 13225805.240 -17857926.183 10 0 60187 12600.00000 0 10293721.879 12469290.407 -19707521.183 10 0 60187 13500.00000 0 7849126.088 11828492.621 -21173628.146 10 0 60187 14400.00000 0 5211296.727 11342166.421 -22227750.754 10 0 60187 15300.00000 0 2442479.801 11039027.488 -22849424.287 10 0 60187 16200.00000 0 -390067.812 10936503.007 -23026611.168 10 0 60187 17100.00000 0 -3216637.008 11039976.951 -22755931.112 10 0 60187 18000.00000 0 -5967725.570 11342561.763 -22042721.803 10 0 60187 18900.00000 0 -8576687.452 11825405.594 -20900929.365 10 0 60187 19800.00000 0 -10982262.519 12458521.622 -19352831.139 10 0 60187 20700.00000 0 -13130882.093 13202103.960 -17428596.478 10 0 60187 21600.00000 0 -14978655.232 14008274.139 -15165694.376 10 0 60187 22500.00000 0 -16492954.068 14823184.076 -12608159.660 10 0 60187 23400.00000 0 -17653533.365 15589386.398 -9805732.245 10 0 60187 24300.00000 0 -18453139.022 16248371.780 -6812886.415 10 0 60187 25200.00000 0 -18897581.689 16743165.981 -3687769.224 10 0 60187 26100.00000 0 -19005274.060 17020876.745 -491068.968 10 0 60187 27000.00000 0 -18806252.904 17035083.015 2715164.027 10 0 60187 27900.00000 0 -18340728.413 16747965.540 5868721.175 10 0 60187 28800.00000 0 -17657223.164 16132089.031 8908440.414 10 0 60187 29700.00000 0 -16810379.963 15171760.704 11775388.614 10 0 60187 30600.00000 0 -15858531.497 13863907.878 14413998.909 10 0 60187 31500.00000 0 -14861134.335 12218437.512 16773141.226 10 0 60187 32400.00000 0 -13876175.169 10258062.111 18807105.889 10 0 60187 33300.00000 0 -12957657.974 8017598.567 20476482.005 10 0 60187 34200.00000 0 -12153277.123 5542768.328 21748914.423 10 0 60187 35100.00000 0 -11502373.458 2888547.694 22599725.451 10 0 60187 36000.00000 0 -11034258.455 117135.538 23012390.046 10 0 60187 36900.00000 0 -10766976.198 -2704378.639 22978855.754 10 0 60187 37800.00000 0 -10706554.787 -5506551.043 22499701.472 10 0 60187 38700.00000 0 -10846778.492 -8220220.728 21584131.836 10 0 60187 39600.00000 0 -11169490.482 -10779139.482 20249806.916 10 0 60187 40500.00000 0 -11645413.908 -13122486.622 18522509.763 10 0 60187 41400.00000 0 -12235457.578 -15197165.212 16435657.248 10 0 60187 42300.00000 0 -12892452.089 -16959784.867 14029662.578 10 0 60187 43200.00000 0 -13563244.120 -18378248.999 11351160.738 10 0 60187 44100.00000 0 -14191061.207 -19432880.425 8452110.842 10 0 60187 45000.00000 0 -14718047.540 -20117038.256 5388792.118 10 0 60187 45900.00000 0 -15087863.653 -20437200.146 2220712.540 10 0 60187 46800.00000 0 -15248239.692 -20412506.398 -990548.782 10 0 60187 47700.00000 0 -15153373.474 -20073785.080 -4182542.632 10 0 60187 48600.00000 0 -14766070.733 -19462099.431 -7293170.232 10 0 60187 49500.00000 0 -14059535.667 -18626879.149 -10261898.756 10 0 60187 50400.00000 0 -13018734.542 -17623714.964 -13030947.191 10 0 60187 51300.00000 0 -11641273.201 -16511910.295 -15546418.570 10 0 60187 52200.00000 0 -9937749.953 -15351894.100 -17759355.720 10 0 60187 53100.00000 0 -7931567.609 -14202604.883 -19626699.306 10 0 60187 54000.00000 0 -5658211.376 -13118956.878 -21112129.123 10 0 60187 54900.00000 0 -3164021.946 -12149495.713 -22186772.156 10 0 60187 55800.00000 0 -504514.397 -11334342.612 -22829763.627 10 0 60187 56700.00000 0 2257687.399 -10703513.676 -23028650.432 10 0 60187 57600.00000 0 5055215.116 -10275684.715 -22779629.459 10 0 60187 58500.00000 0 7818520.850 -10057453.079 -22087616.584 10 0 60187 59400.00000 0 10478536.073 -10043126.846 -20966145.416 10 0 60187 60300.00000 0 12969314.399 -10215049.373 -19437098.140 10 0 60187 61200.00000 0 15230548.620 -10544444.637 -17530274.020 10 0 60187 62100.00000 0 17209857.870 -10992746.824 -15282804.200 10 0 60187 63000.00000 0 18864750.432 -11513357.276 -12738424.427 10 0 60187 63900.00000 0 20164181.308 -12053753.877 -9946620.051 10 0 60187 64800.00000 0 21089640.711 -12557863.201 -6961660.169 10 0 60187 65700.00000 0 21635729.327 -12968594.717 -3841539.925 10 0 60187 66600.00000 0 21810197.665 -13230429.587 -646851.831 10 0 60187 67500.00000 0 21633449.362 -13291954.407 2560391.681 10 0 60187 68400.00000 0 21137530.683 -13108232.680 5717961.395 10 0 60187 69300.00000 0 20364649.933 -12642913.767 8764616.584 10 0 60187 70200.00000 0 19365290.037 -11869990.238 11641289.034 10 0 60187 71100.00000 0 18195994.337 -10775129.413 14292223.065 10 0 60187 72000.00000 0 16916919.055 -9356522.793 16666049.754 10 0 60187 72900.00000 0 15589255.241 -7625217.246 18716775.193 10 0 60187 73800.00000 0 14272628.140 -5604913.391 20404664.335 10 0 60187 74700.00000 0 13022582.502 -3331238.669 21697004.168 10 0 60187 75600.00000 0 11888258.487 -850524.293 22568732.249 10 0 60187 76500.00000 0 10910354.658 1781864.431 23002919.206 10 0 60187 77400.00000 0 10119462.579 4503576.477 22991096.357 10 0 60187 78300.00000 0 9534842.023 7247618.743 22533422.393 10 0 60187 79200.00000 0 9163687.605 9944899.338 21638685.792 10 0 60187 80100.00000 0 9000917.328 12526866.458 20324142.499 10 0 60187 81000.00000 0 9029491.965 14928134.675 18615191.273 10 0 60187 81900.00000 0 9221252.131 17088990.587 16544892.003 10 0 60187 82800.00000 0 9538238.323 18957674.349 14153335.229 10 0 60187 83700.00000 0 9934438.862 20492342.483 11486873.933 10 0 60187 84600.00000 0 10357892.529 21662630.198 8597231.525 10 0 60187 85500.00000 0 10753057.429 22450747.770 5540502.548 10 0 60188 0.00000 0 11063345.965 22852064.805 2376065.349 10 0 60188 900.00000 0 11233718.552 22875157.724 -834573.992 10 0 60188 1800.00000 0 11213225.175 22541317.769 -4028979.438 10 0 60188 2700.00000 0 10957386.798 21883540.865 -7145006.305 10 0 60188 3600.00000 0 10430314.007 20945041.327 -10122017.317 10 0 60188 4500.00000 0 9606471.987 19777352.665 -12902070.485 10 0 60188 5400.00000 0 8472015.556 18438095.957 -15431054.495 10 0 60188 6300.00000 0 7025636.321 16988510.482 -17659748.698 10 0 60188 7200.00000 0 5278884.714 15490851.345 -19544786.369 10 0 60188 8100.00000 0 3255952.018 14005764.295 -21049502.113 10 0 60188 9000.00000 0 992920.368 12589748.721 -22144646.731 10 0 60188 9900.00000 0 -1463488.777 11292815.781 -22808955.715 10 0 60188 10800.00000 0 -4057616.055 10156440.099 -23029560.521 10 0 60188 11700.00000 0 -6726945.022 9211890.749 -22802235.046 10 0 60188 12600.00000 0 -9404475.969 8479011.046 -22131472.869 10 0 60188 13500.00000 0 -12021294.152 7965497.506 -21030394.248 10 0 60188 14400.00000 0 -14509225.810 7666707.193 -19520485.011 10 0 60188 15300.00000 0 -16803471.658 7566000.351 -17631172.771 10 0 60188 16200.00000 0 -18845108.632 7635602.629 -15399248.967 10 0 60188 17100.00000 0 -20583356.147 7837949.367 -12868148.181 10 0 60188 18000.00000 0 -21977513.032 8127454.088 -10087098.962 10 0 60188 18900.00000 0 -22998485.126 8452625.581 -7110162.923 10 0 60188 19800.00000 0 -23629840.697 8758443.297 -3995180.972 10 0 60188 20700.00000 0 -23868350.644 8988890.002 -802647.528 10 0 60188 21600.00000 0 -23723992.072 9089534.141 2405465.158 10 0 60188 22500.00000 0 -23219416.343 9010052.376 5566909.516 10 0 60188 23400.00000 0 -22388905.055 8706585.488 8620368.420 10 0 60188 24300.00000 0 -21276858.796 8143827.987 11506640.823 10 0 60188 25200.00000 0 -19935882.850 7296763.115 14169784.438 10 0 60188 26100.00000 0 -18424550.649 6151969.928 16558193.623 10 0 60188 27000.00000 0 -16804938.898 4708447.128 18625592.213 10 0 60188 27900.00000 0 -15140037.435 2977918.446 20331922.784 10 0 60188 28800.00000 0 -13491141.777 984606.000 21644115.957 10 0 60188 29700.00000 0 -11915336.661 -1235520.035 22536725.706 10 0 60188 30600.00000 0 -10463174.861 -3635985.510 22992419.130 10 0 60188 31500.00000 0 -9176647.293 -6161499.841 23002311.735 10 0 60188 32400.00000 0 -8087528.287 -8750018.513 22566142.021 10 0 60188 33300.00000 0 -7216164.342 -11335096.558 21692281.925 10 0 60188 34200.00000 0 -6570756.434 -13848436.844 20397582.485 10 0 60188 35100.00000 0 -6147165.531 -16222528.749 18707057.009 10 0 60188 36000.00000 0 -5929249.332 -18393268.700 16653406.883 10 0 60188 36900.00000 0 -5889716.202 -20302454.357 14276398.096 10 0 60188 37800.00000 0 -5991460.562 -21900048.951 11622099.462 10 0 60188 38700.00000 0 -6189323.760 -23146121.430 8741996.255 10 0 60188 39600.00000 0 -6432206.291 -24012381.057 5691995.704 10 0 60188 40500.00000 0 -6665442.108 -24483241.816 2531343.182 10 0 60188 41400.00000 0 -6833334.321 -24556371.447 -678529.999 10 0 60188 42300.00000 0 -6881744.365 -24242701.530 -3875204.504 10 0 60188 43200.00000 0 -6760624.052 -23565897.760 -6996492.746 10 0 60188 44100.00000 0 -6426382.096 -22561312.502 -9981656.015 10 0 60188 45000.00000 0 -5843983.478 -21274463.688 -12772594.330 10 0 60188 45900.00000 0 -4988691.327 -19759104.358 -15314984.902 10 0 60188 46800.00000 0 -3847376.075 -18074964.481 -17559346.272 10 0 60188 47700.00000 0 -2419335.126 -16285260.621 -19462006.697 10 0 60188 48600.00000 0 -716587.070 -14454078.701 -20985957.532 10 0 60188 49500.00000 0 1236373.196 -12643740.250 -22101574.850 10 0 60188 50400.00000 0 3403349.227 -10912263.024 -22787195.286 10 0 60188 51300.00000 0 5737716.055 -9311022.524 -23029535.155 10 0 60188 52200.00000 0 8184138.934 -7882712.192 -22823945.067 10 0 60188 53100.00000 0 10680666.463 -6659687.183 -22174495.491 10 0 60188 54000.00000 0 13161111.142 -5662760.238 -21093892.021 10 0 60188 54900.00000 0 15557618.370 -4900498.950 -19603222.380 10 0 60188 55800.00000 0 17803317.016 -4369052.554 -17731540.391 10 0 60188 56700.00000 0 19834941.313 -4052513.989 -15515295.270 10 0 60188 57600.00000 0 21595315.054 -3923800.487 -12997617.568 10 0 60188 58500.00000 0 23035594.790 -3946014.082 -10227475.850 10 0 60188 59400.00000 0 24117178.901 -4074223.351 -7258720.780 10 0 60188 60300.00000 0 24813203.390 -4257589.940 -4149035.385 10 0 60188 61200.00000 0 25109562.636 -4441749.092 -958812.261 10 0 60188 62100.00000 0 25005413.251 -4571342.749 2250020.219 10 0 60188 63000.00000 0 24513140.944 -4592597.584 5415199.630 10 0 60188 63900.00000 0 23657792.715 -4455838.608 8475335.643 10 0 60188 64800.00000 0 22475999.074 -4117831.877 11371097.165 10 0 60188 65700.00000 0 21014432.173 -3543857.257 14046357.603 10 0 60188 66600.00000 0 19327864.919 -2709423.649 16449276.392 10 0 60188 67500.00000 0 17476912.521 -1601554.218 18533296.392 10 0 60188 68400.00000 0 15525550.779 -219587.178 20258038.589 10 0 60188 69300.00000 0 13538514.405 1424542.133 21590077.577 10 0 60188 70200.00000 0 11578683.288 3306550.596 22503583.661 10 0 60188 71100.00000 0 9704564.777 5390578.899 22980819.938 10 0 60188 72000.00000 0 7967975.959 7630454.595 23012485.250 10 0 60188 72900.00000 0 6412021.436 9971395.647 22597896.708 10 0 60188 73800.00000 0 5069449.918 12352085.283 21745008.166 10 0 60188 74700.00000 0 3961457.312 14707033.491 20470263.911 10 0 60188 75600.00000 0 3096985.630 16969128.475 18798289.674 10 0 60188 76500.00000 0 2472546.553 19072273.163 16761425.976 10 0 60188 77400.00000 0 2072576.835 20953997.870 14399111.722 10 0 60188 78300.00000 0 1870310.500 22557940.714 11757128.870 10 0 60188 79200.00000 0 1829131.188 23836092.349 8886721.772 10 0 60188 80100.00000 0 1904347.662 24750710.900 5843607.499 10 0 60188 81000.00000 0 2045317.412 25275826.344 2686895.861 10 0 60188 81900.00000 0 2197828.324 25398270.576 -522060.019 10 0 60188 82800.00000 0 2306637.085 25118189.061 -3720859.978 10 0 60188 83700.00000 0 2318056.007 24449011.889 -6847276.120 10 0 60188 84600.00000 0 2182477.619 23416884.837 -9840470.677 10 0 60188 85500.00000 0 1856728.833 22059584.042 -12642187.755 10 0 60189 0.00000 0 1306153.596 20424959.988 -15197894.639 10 0 60189 900.00000 0 506334.153 18568975.405 -17457850.965 10 0 60189 1800.00000 0 -555622.548 16553422.122 -19378080.838 10 0 60189 2700.00000 0 -1880289.909 14443410.192 -20921233.180 10 0 60189 3600.00000 0 -3455652.307 12304737.122 -22057309.856 10 0 60189 4500.00000 0 -5257373.918 10201246.944 -22764248.878 10 0 60189 5400.00000 0 -7249595.355 8192289.903 -23028351.356 10 0 60189 6300.00000 0 -9386225.443 6330388.870 -22844544.221 10 0 60189 7200.00000 0 -11612674.600 4659209.594 -22216474.063 10 0 60189 8100.00000 0 -13867957.743 3211918.853 -21156430.655 10 0 60189 9000.00000 0 -16087079.191 2009998.023 -19685102.056 10 0 60189 9900.00000 0 -18203600.103 1062560.355 -17831166.366 10 0 60189 10800.00000 0 -20152281.450 366198.937 -15630728.339 10 0 60189 11700.00000 0 -21871692.287 -94630.000 -13126612.018 10 0 60189 12600.00000 0 -23306674.517 -346706.277 -10367523.378 10 0 60189 13500.00000 0 -24410561.402 -426667.062 -7407099.472 10 0 60189 14400.00000 0 -25147057.361 -379209.886 -4302862.799 10 0 60189 15300.00000 0 -25491700.843 -254954.564 -1115101.535 10 0 60189 16200.00000 0 -25432849.610 -108055.358 2094302.336 10 0 60189 17100.00000 0 -24972147.800 6334.835 5263073.976 10 0 60189 18000.00000 0 -24124455.918 34640.541 8329752.214 10 0 60189 18900.00000 0 -22917247.347 -72629.240 11234878.161 10 0 60189 19800.00000 0 -21389497.251 -358549.041 13922143.054 10 0 60189 20700.00000 0 -19590110.747 -857718.552 16339473.365 10 0 60189 21600.00000 0 -17575956.258 -1594564.703 18440032.722 10 0 60189 22500.00000 0 -15409586.038 -2582075.878 20183121.989 10 0 60189 23400.00000 0 -13156738.621 -3821021.852 21534960.871 10 0 60189 24300.00000 0 -10883726.544 -5299692.823 22469336.788 10 0 60189 25200.00000 0 -8654817.242 -6994169.402 22968109.246 10 0 60189 26100.00000 0 -6529715.015 -8869113.543 23021560.476 10 0 60189 27000.00000 0 -4561247.674 -10879048.811 22628585.895 10 0 60189 27900.00000 0 -2793352.941 -12970078.296 21796720.652 10 0 60189 28800.00000 0 -1259447.445 -15081970.161 20542001.349 10 0 60189 29700.00000 0 18754.647 -17150525.556 18888664.917 10 0 60189 30600.00000 0 1031924.749 -19110131.538 16868689.499 10 0 60189 31500.00000 0 1783276.606 -20896393.560 14521185.119 10 0 60189 32400.00000 0 2288190.467 -22448738.287 11891644.817 10 0 60189 33300.00000 0 2573320.613 -23712878.160 9031069.716 10 0 60189 34200.00000 0 2675223.927 -24643034.336 5994984.206 10 0 60189 35100.00000 0 2638567.530 -25203824.296 2842359.859 10 0 60189 36000.00000 0 2513991.437 -25371734.066 -365531.181 10 0 60189 36900.00000 0 2355717.153 -25136112.203 -3566310.790 10 0 60189 37800.00000 0 2219004.127 -24499642.788 -6697713.659 10 0 60189 38700.00000 0 2157562.774 -23478276.573 -9698805.853 10 0 60189 39600.00000 0 2221034.799 -22100622.485 -12511178.410 10 0 60189 40500.00000 0 2452648.814 -20406824.577 -15080091.862 10 0 60189 41400.00000 0 2887151.875 -18446971.393 -17355548.563 10 0 60189 42300.00000 0 3549105.727 -16279104.560 -19293271.229 10 0 60189 43200.00000 0 4451621.027 -13966910.299 -20855568.249 10 0 60189 44100.00000 0 5595584.102 -11577190.815 -22012068.736 10 0 60189 45000.00000 0 6969409.812 -9177221.629 -22740313.028 10 0 60189 45900.00000 0 8549331.753 -6832105.421 -23026187.429 10 0 60189 46800.00000 0 10300218.311 -4602232.809 -22864195.064 10 0 60189 47700.00000 0 12176880.831 -2540955.693 -22257557.999 10 0 60189 48600.00000 0 14125819.457 -692569.605 -21218149.084 10 0 60189 49500.00000 0 16087333.831 909311.756 -19766255.178 10 0 60189 50400.00000 0 17997910.427 2242923.157 -17930176.726 10 0 60189 51300.00000 0 19792786.740 3299008.465 -15745671.719 10 0 60189 52200.00000 0 21408585.071 4080949.352 -13255255.040 10 0 60189 53100.00000 0 22785905.713 4604358.511 -10507367.098 10 0 60189 54000.00000 0 23871771.033 4896156.375 -7555428.083 10 0 60189 54900.00000 0 24621818.219 4993171.913 -4456796.506 10 0 60189 55800.00000 0 25002148.994 4940328.081 -1271652.562 10 0 60189 56700.00000 0 24990759.087 4788489.843 1938171.703 10 0 60189 57600.00000 0 24578487.924 4592066.717 5110392.447 10 0 60189 58500.00000 0 23769449.121 4406471.905 8183480.798 10 0 60189 59400.00000 0 22580924.228 4285545.897 11097852.877 10 0 60189 60300.00000 0 21042724.466 4279053.618 13797020.144 10 0 60189 61200.00000 0 19196047.474 4430360.864 16228678.060 10 0 60189 62100.00000 0 17091876.836 4774388.014 18345712.535 10 0 60189 63000.00000 0 14788991.023 5335927.215 20107105.404 10 0 60189 63900.00000 0 12351664.304 6128393.922 21478722.180 10 0 60189 64800.00000 0 9847154.636 7153065.577 22433967.726 10 0 60189 65700.00000 0 7343082.042 8398839.932 22954297.914 10 0 60189 66600.00000 0 4904805.352 9842524.018 23029577.957 10 0 60189 67500.00000 0 2592905.030 11449642.875 22658280.804 10 0 60189 68400.00000 0 460875.413 13175735.651 21847521.735 10 0 60189 69300.00000 0 -1446878.872 14968086.460 20612928.129 10 0 60189 70200.00000 0 -3096660.011 16767819.287 18978346.216 10 0 60189 71100.00000 0 -4466641.101 18512270.870 16975389.536 10 0 60189 72000.00000 0 -5547529.311 20137543.544 14642836.740 10 0 60189 72900.00000 0 -6342700.795 21581132.088 12025889.250 10 0 60189 73800.00000 0 -6867802.069 22784514.978 9175302.113 10 0 60189 74700.00000 0 -7149834.746 23695601.342 6146404.110 10 0 60189 75600.00000 0 -7225762.434 24270930.408 2998025.603 10 0 60189 76500.00000 0 -7140698.838 24477530.250 -208645.198 10 0 60189 77400.00000 0 -6945754.057 24294356.516 -3411255.095 10 0 60189 78300.00000 0 -6695630.822 23713249.470 -6547504.135 10 0 60189 79200.00000 0 -6446073.255 22739367.834 -9556364.789 10 0 60189 80100.00000 0 -6251277.251 21391080.150 -12379277.351 10 0 60189 81000.00000 0 -6161373.264 19699317.347 -14961297.415 10 0 60189 81900.00000 0 -6220089.299 17706413.132 -17252172.222 10 0 60189 82800.00000 0 -6462694.195 15464480.519 -19207324.233 10 0 60189 83700.00000 0 -6914309.235 13033392.443 -20788722.360 10 0 60189 84600.00000 0 -7588660.420 10478451.020 -21965623.692 10 0 60189 85500.00000 0 -8487324.837 7867842.992 -22715171.316 99